La Palma > ESTACION METEOROLÓGICA El Mulato - San Andrés y Sauces

DATOS ACTUALES Online

Ultima actulizacion 12 minutos

19.2 ºC

Temperatura

47

Humedad (%)

Presión (mb)

0

Precipitación (mm)

Viento (Km/h)

DATOS DIARIOS

Temperatura últimas 24 horas (ºC)

Humedad últimas 24 horas (%)

Presión atmosférica últimas 24 horas (mb)

Precipitaciones últimas 23 horas (mm)

Viento últimas 24 horas (Km/h)

Hora Temperatura (°C) ºC Precipitación (mm) mm Presión (mb) mb Humedad (%) % Viento (Km/h) km/h
15 - 22:00 20.5 0.4 0 37.7
15 - 23:00 19.9 0.4 0 37
16 - 00:00 17.3 0 0 84.5
16 - 01:00 17 0 0 86.6
16 - 02:00 17.6 0 0 39.1
16 - 03:00 19.2 0 0 39.1
16 - 04:00 18.7 0 0 39.9
16 - 05:00 18.4 0 0 42.6
16 - 06:00 18.6 0 0 45.6
16 - 07:00 19.2 0 0 47.2
16 - 08:00 19.7 0 0 50.7
16 - 09:00 20.2 0 0 56
16 - 10:00 21.1 0 0 54.1
16 - 11:00 23.2 0 0 58
16 - 12:00 24.6 0 0 46.5
16 - 13:00 26 0 0 56.1
16 - 14:00 27.5 0 0 56
16 - 15:00 27.8 0 0 57.8
16 - 16:00 26.6 0 0 56.4
16 - 17:00 25.1 0 0 63.8
16 - 18:00 22.6 0 0 63.2
16 - 19:00 21.3 0 0 44.6
16 - 20:00 19.8 0 0 48.4
16 - 21:00 19.5 0 0 44.6
16 - 22:00 19.2 0 0 47.1
Apalmet utiliza cookies propias y de terceros para mejorar la usabilidad y la experiencia web. Política de cookies.